Regional Weather Roundup
Issued by NWS Jackson, KY

Home | Current Version | Previous Version | Text Only | Print | Product List | Glossary Off
Versions: 1 2 3 4 5 6 7 8 9 10 11 12 13 14 15 16 17 18 19 20 21 22 23 24 25 26 27 28 29 30 31 32 33 34 35 36 37 38 39 40 41 42 43 44 45 46 47 48 49 50

000
ASUS43 KJKL 262119
RWRJKL

EAST KENTUCKY HOURLY WEATHER ROUNDUP
NATIONAL WEATHER SERVICE JACKSON KY
400 PM EST FRI DEC 26 2014

NOTE: "FAIR" INDICATES FEW OR NO CLOUDS BELOW 12,000 FEET WITH
NO SIGNIFICANT WEATHER AND/OR OBSTRUCTIONS TO VISIBILITY.

* THESE REPORTS ARE NOT UNDER NWS QUALITY CONTROL AND MAY NOT
  REPORT WEATHER SUCH AS PRECIPITATION AND FOG.

KYZ079-080-083-085-087-088-110-112-115-119-120-262200
...EASTERN KENTUCKY...

CITY           SKY/WX    TMP DP  RH WIND       PRES   REMARKS
JACKSON        SUNNY     53  27  36 S7        30.24S
LONDON         SUNNY     55  25  31 SW7       30.25S
SOMERSET*      SUNNY     54  34  47 SE5       30.25F
MONTICELLO*    SUNNY     57  32  39 S7        30.26F
MIDDLESBORO*   MOSUNNY   51  33  50 S8        30.28R
HARLAN APT*    PTCLDY    54  32  43 CALM      30.26S
HAZARD APT*    CLEAR     55  27  33 SW7       30.25
BLACK MTN*       N/A     43  25  49 S5          N/A
PIKEVILLE APT* SUNNY     52  32  46 S3        30.25S
BIG SANDY*     CLEAR     54  30  40 SW6       30.25R
MOREHEAD APT*  PTCLDY    52  32  46 S7        30.24F
ASHLAND*       SUNNY    N/A N/A N/A SW7       30.21S
$$

KYZ035-036-041-042-044-050-067-078-099-262200
...CENTRAL KENTUCKY...

CITY           SKY/WX    TMP DP  RH WIND       PRES   REMARKS
MT STERLING*   SUNNY     54  34  47 SW10      30.23S
FLEMING/MASON* SUNNY     52  37  58 S9        30.22S
DANVILLE*      SUNNY     52  34  50 SW10      30.23S
RICHMOND*      SUNNY     54  32  43 S7        30.22S
LEXINGTON      SUNNY     52  33  48 S10       30.22R
FRANKFORT      SUNNY     53  33  46 SW9       30.20R
$$

KYZ091>093-OHZ055-061-077-WVZ005-015-034-035-042-262200
...SOUTHERN OHIO/WEST VIRGINIA...

CITY           SKY/WX    TMP DP  RH WIND       PRES   REMARKS
COVINGTON      PTSUNNY   52  33  48 SW12G17   30.18R
COLUMBUS       CLOUDY    47  36  65 SW7       30.18S
DAYTON         CLOUDY    49  37  63 S9        30.15S
WILMINGTON     CLOUDY    47  37  68 S9        30.17S
HUNTINGTON     MOSUNNY   49  33  54 S7        30.24R
CHARLESTON     PTSUNNY   51  30  44 SW8       30.24R
PINEVILLE*     SUNNY     42  37  83 MISG      30.31S
BECKLEY        MOSUNNY   48  21  34 SW8       30.25R
BLUEFIELD      MOSUNNY   55  21  26 N3        30.25R
$$

VAZ002-007-008-TNZ017-027-036-066-071-262200
...SOUTHWEST VIRGINIA/EAST TENNESSEE...

CITY           SKY/WX    TMP DP  RH WIND       PRES   REMARKS
WISE*          MOSUNNY   52  21  30 SW7       30.27R
JONESVILLE*    PTCLDY    52  28  40 SW10      30.30S
ABINGDON*      MOSUNNY   56  19  23 W6        30.27R
BRISTOL        PTSUNNY   55  25  31 W6        30.28R
KNOXVILLE      PTSUNNY   49  35  58 CALM      30.30R
OAK RIDGE      SUNNY     51  34  52 CALM      30.30S
CROSSVILLE     PTSUNNY   48  31  51 SE6       30.25S
NASHVILLE      PTSUNNY   53  38  56 S10       30.24R
$$

...KEY TO REMARKS...
VSB - VISIBILITY IN MILES
WCI - WIND CHILL INDEX
HX  - HEAT INDEX

$$


USA.gov is the U.S. government's official web portal to all federal, state and local government web resources and services.